Regional Weather Roundup
Issued by NWS

Home | Current Version | Previous Version | Text Only | Print | Product List | Glossary Off
Versions: 1 2 3 4 5 6 7 8 9 10 11 12 13 14 15 16 17 18 19 20 21 22 23 24 25 26 27 28 29 30 31 32 33 34 35 36 37 38 39 40 41 42 43 44 45 46 47 48 49 50

000
ASUS44 KMEG 211700
RWRTN
TENNESSEE HOURLY STATE WEATHER ROUNDUP
NATIONAL WEATHER SERVICE MEMPHIS TN
1200 PM CDT TUE OCT 21 2014

TNZ002-004-019-021-049-052-054-088>092-211800-
WEST TENNESSEE

CITY           SKY/WX    TMP DP  RH WIND       PRES   REMARKS
MEMPHIS INTL   SUNNY     75  46  35 NE10      30.10F
NWS MEMPHIS      N/A     70 N/A N/A MISG        N/A
JACKSON        SUNNY     72  45  37 NE10      30.10F
DYERSBURG      SUNNY     70  43  37 N8        30.12S
UNION CITY     SUNNY     68  46  45 NW8       30.09S
PARIS          SUNNY     66  46  48 VRB5      30.09F
LEXINGTON      SUNNY     70  46  43 N8        30.09S
SAVANNAH       SUNNY     72  50  46 N7        30.10S
$$

TNZ008-025-027-028-033-062-065-066-211800-
NORTH MIDDLE TENNESSEE

CITY           SKY/WX    TMP DP  RH WIND       PRES   REMARKS
NASHVILLE      MOSUNNY   70  48  45 NW7       30.07F
CLARKSVILLE    SUNNY     68  47  46 NW7       30.08S
COOKEVILLE     MOSUNNY   64  48  55 VRB5      30.06F
CROSSVILLE     MOSUNNY   63  41  44 NW12G18   30.07R
$$

TNZ061-075-076-078-094-096-097-211800-
SOUTH MIDDLE TENNESSEE

CITY           SKY/WX    TMP DP  RH WIND       PRES   REMARKS
MCMINNVILLE    SUNNY     66  46  48 N5        30.07S
SHELBYVILLE    SUNNY     70  48  46 N9        30.08F
$$

TNZ017-018-042-046-047-211800-
NORTHEAST TENNESSEE

CITY           SKY/WX    TMP DP  RH WIND       PRES   REMARKS
TRI CITIES     PTSUNNY   60  47  61 W10       29.98F
ELIZABETHTON   CLOUDY    57  45  62 W12       29.98F
$$

TNZ012-013-036-069-073-074-211800-
CENTRAL EAST TENNESSEE

CITY           SKY/WX    TMP DP  RH WIND       PRES   REMARKS
KNOXVILLE      MOSUNNY   65  47  52 VRB5      30.02F
OAK RIDGE      MOSUNNY   66  43  43 VRB3      30.04S
GATLINBURG     PTSUNNY   63  46  55 NW12      30.01F
MORRISTOWN     MOSUNNY   64  45  48 W13       30.02F
$$

TNZ083-085-099-211800-
SOUTHEAST TENNESSEE

CITY           SKY/WX    TMP DP  RH WIND       PRES   REMARKS
CHATTANOOGA    MOSUNNY   69  50  50 VRB6      30.04F
$$

SKY/WX REPORTED AS FAIR MEANS FEW OR NO CLOUDS BELOW
12 THOUSAND FEET.




USA.gov is the U.S. government's official web portal to all federal, state and local government web resources and services.